Location: *
(40.7190°N, 4.2480°W)
Time: 22:47:34
(UTC+00:00)

Cosmos 1484 Rocket - Pass Details

Date: 18 February 2020
Orbit: 506 x 559 km, 97.4° (Epoch: 05 April)

Event Time Altitude Azimuth Distance (km) Brightness Sun altitude
Rises 05:02:38 0° 14° (NNE) 2,718 6.6 -24.4°
Reaches altitude 10° 05:04:46 10° 18° (NNE) 1,828 5.7 -24.0°
Maximum altitude 05:08:42 66° 100° (E) 605 3.1 -23.2°
Enters shadow 05:11:23 20° 180° (S) 1,324 4.7 -22.7°
